• In Moldova, Republic
  • List of Countries
  • For 7 days
  • Water Temperature
  • Satellite Maps
  • Weather Map
  • Weather Widgets
  • user-avatar
    Login

    Hourly Weather Albany

    Today, 30 March, Thursday

    Time Temperature Precipitation Wind Pressure Humidity
    00:00 +12°C° 0 mm 3 mps 767 mmHg 73%
    01:00 +11°C° 0 mm 3 mps 767 mmHg 75%
    02:00 +11°C° 0 mm 4 mps 766 mmHg 76%
    03:00 +11°C° 0 mm 4 mps 766 mmHg 77%
    04:00 +11°C° 0 mm 4 mps 766 mmHg 77%
    05:00 +10°C° 0 mm 4 mps 766 mmHg 78%
    06:00 +11°C° 0 mm 4 mps 766 mmHg 73%
    07:00 +12°C° 0 mm 4 mps 766 mmHg 68%
    08:00 +13°C° 0 mm 4 mps 766 mmHg 64%
    09:00 +15°C° 0 mm 4 mps 766 mmHg 56%
    10:00 +19°C° 0 mm 3 mps 765 mmHg 48%
    11:00 +21°C° 0 mm 3 mps 765 mmHg 40%
    12:00 +23°C° 0 mm 2 mps 764 mmHg 38%
    13:00 +24°C° 0 mm 2 mps 764 mmHg 35%
    14:00 +25°C° 0 mm 2 mps 763 mmHg 33%
    15:00 +24°C° 0 mm 2 mps 763 mmHg 39%
    16:00 +22°C° 0 mm 3 mps 763 mmHg 44%
    17:00 +20°C° 0 mm 3 mps 763 mmHg 50%
    18:00 +19°C° 0 mm 3 mps 764 mmHg 57%
    19:00 +17°C° 0 mm 2 mps 764 mmHg 65%
    20:00 +15°C° 0 mm 2 mps 764 mmHg 72%
    21:00 +15°C° 0 mm 2 mps 764 mmHg 74%
    22:00 +14°C° 0 mm 2 mps 765 mmHg 77%
    23:00 +14°C° 0 mm 2 mps 765 mmHg 79%

    Tomorrow, 31 March, Friday

    Time Temperature Precipitation Wind Pressure Humidity
    00:00 +14°C° 0 mm 2 mps 765 mmHg 80%
    01:00 +13°C° 0 mm 2 mps 765 mmHg 81%
    02:00 +13°C° 0 mm 2 mps 764 mmHg 82%
    03:00 +13°C° 0 mm 2 mps 764 mmHg 83%
    04:00 +13°C° 0 mm 2 mps 764 mmHg 84%
    05:00 +13°C° 0 mm 2 mps 764 mmHg 85%
    06:00 +14°C° 0 mm 2 mps 765 mmHg 79%
    07:00 +15°C° 0 mm 2 mps 765 mmHg 73%
    08:00 +17°C° 0 mm 2 mps 765 mmHg 68%
    09:00 +18°C° 0 mm 2 mps 766 mmHg 62%
    10:00 +19°C° 0 mm 2 mps 766 mmHg 57%
    11:00 +21°C° 0 mm 2 mps 766 mmHg 52%
    12:00 +21°C° 0 mm 3 mps 766 mmHg 52%
    13:00 +21°C° 0 mm 3 mps 765 mmHg 52%
    14:00 +22°C° 0 mm 4 mps 765 mmHg 52%
    15:00 +21°C° 0 mm 4 mps 765 mmHg 58%
    16:00 +20°C° 0 mm 4 mps 765 mmHg 63%
    17:00 +19°C° 0 mm 5 mps 766 mmHg 68%
    18:00 +17°C° 0 mm 5 mps 766 mmHg 74%
    19:00 +16°C° 0 mm 5 mps 766 mmHg 79%
    20:00 +15°C° 0 mm 5 mps 767 mmHg 85%
    21:00 +15°C° 0.1 mm 5 mps 767 mmHg 86%
    22:00 +15°C° 0.1 mm 5 mps 767 mmHg 87%
    23:00 +15°C° 0.1 mm 5 mps 767 mmHg 88%

    Day after tomorrow, 1 April, Saturday

    Time Temperature Precipitation Wind Pressure Humidity
    00:00 +15°C° 0.1 mm 5 mps 767 mmHg 88%
    01:00 +15°C° 0.1 mm 5 mps 767 mmHg 88%
    02:00 +15°C° 0.1 mm 5 mps 767 mmHg 89%
    03:00 +15°C° 0.1 mm 5 mps 767 mmHg 89%
    04:00 +15°C° 0.1 mm 5 mps 767 mmHg 89%
    05:00 +15°C° 0.1 mm 5 mps 767 mmHg 89%
    06:00 +15°C° 0.1 mm 5 mps 767 mmHg 87%
    07:00 +16°C° 0.1 mm 5 mps 767 mmHg 84%
    08:00 +16°C° 0.1 mm 5 mps 767 mmHg 82%
    09:00 +19°C° 0.1 mm 5 mps 767 mmHg 73%
    10:00 +20°C° 0.1 mm 5 mps 767 mmHg 64%
    11:00 +22°C° 0.1 mm 5 mps 767 mmHg 56%
    12:00 +22°C° 0 mm 6 mps 766 mmHg 53%
    13:00 +23°C° 0 mm 6 mps 766 mmHg 51%
    14:00 +24°C° 0 mm 6 mps 765 mmHg 49%
    15:00 +23°C° 0 mm 6 mps 765 mmHg 54%
    16:00 +22°C° 0 mm 7 mps 765 mmHg 59%
    17:00 +21°C° 0 mm 7 mps 764 mmHg 64%
    18:00 +20°C° 0 mm 7 mps 765 mmHg 70%
    19:00 +18°C° 0 mm 7 mps 765 mmHg 76%
    20:00 +17°C° 0 mm 7 mps 765 mmHg 82%
    21:00 +16°C° 0 mm 7 mps 765 mmHg 83%
    22:00 +16°C° 0 mm 7 mps 765 mmHg 84%
    23:00 +16°C° 0 mm 6 mps 765 mmHg 85%

    2 April, Sunday

    Time Temperature Precipitation Wind Pressure Humidity
    00:00 +16°C° 0 mm 6 mps 765 mmHg 86%
    01:00 +16°C° 0 mm 6 mps 765 mmHg 86%
    02:00 +16°C° 0 mm 6 mps 765 mmHg 87%
    03:00 +15°C° 0 mm 5 mps 764 mmHg 86%
    04:00 +15°C° 0 mm 5 mps 764 mmHg 84%
    05:00 +15°C° 0 mm 5 mps 764 mmHg 83%
    06:00 +16°C° 0 mm 5 mps 764 mmHg 73%
    07:00 +17°C° 0 mm 5 mps 764 mmHg 63%
    08:00 +19°C° 0 mm 5 mps 765 mmHg 53%
    09:00 +21°C° 0 mm 5 mps 764 mmHg 47%
    10:00 +23°C° 0 mm 5 mps 764 mmHg 40%
    11:00 +27°C° 0 mm 5 mps 764 mmHg 34%
    12:00 +27°C° 0 mm 5 mps 763 mmHg 32%
    13:00 +28°C° 0 mm 5 mps 763 mmHg 30%
    14:00 +29°C° 0 mm 5 mps 762 mmHg 29%
    15:00 +28°C° 0 mm 5 mps 762 mmHg 32%
    16:00 +27°C° 0 mm 5 mps 762 mmHg 36%
    17:00 +27°C° 0 mm 5 mps 762 mmHg 40%
    18:00 +25°C° 0 mm 5 mps 762 mmHg 45%
    19:00 +22°C° 0 mm 5 mps 763 mmHg 50%
    20:00 +20°C° 0 mm 6 mps 763 mmHg 55%
    21:00 +20°C° 0 mm 5 mps 763 mmHg 56%
    22:00 +19°C° 0 mm 5 mps 763 mmHg 57%
    23:00 +19°C° 0 mm 5 mps 763 mmHg 58%

    3 April, Monday

    Time Temperature Precipitation Wind Pressure Humidity
    00:00 +19°C° 0 mm 5 mps 763 mmHg 56%
    01:00 +18°C° 0 mm 4 mps 762 mmHg 54%
    02:00 +18°C° 0 mm 4 mps 762 mmHg 51%
    03:00 +18°C° 0 mm 3 mps 762 mmHg 49%
    04:00 +18°C° 0 mm 3 mps 762 mmHg 48%
    05:00 +17°C° 0 mm 3 mps 762 mmHg 46%
    06:00 +18°C° 0 mm 3 mps 763 mmHg 45%
    07:00 +19°C° 0 mm 3 mps 763 mmHg 44%
    08:00 +20°C° 0 mm 2 mps 763 mmHg 43%
    09:00 +23°C° 0 mm 2 mps 763 mmHg 40%
    10:00 +26°C° 0 mm 2 mps 763 mmHg 36%
    11:00 +28°C° 0 mm 2 mps 763 mmHg 33%
    12:00 +28°C° 0 mm 2 mps 763 mmHg 36%
    13:00 +28°C° 0 mm 3 mps 762 mmHg 38%
    14:00 +28°C° 0 mm 3 mps 762 mmHg 41%
    15:00 +27°C° 0 mm 3 mps 762 mmHg 50%
    16:00 +25°C° 0 mm 4 mps 762 mmHg 58%
    17:00 +22°C° 0 mm 4 mps 762 mmHg 66%
    18:00 +21°C° 0 mm 4 mps 763 mmHg 74%
    19:00 +20°C° 0 mm 4 mps 763 mmHg 82%
    20:00 +18°C° 0 mm 3 mps 764 mmHg 89%
    21:00 +18°C° 0 mm 3 mps 764 mmHg 89%
    22:00 +18°C° 0 mm 3 mps 764 mmHg 89%
    23:00 +18°C° 0 mm 3 mps 764 mmHg 89%

    4 April, Tuesday

    Time Temperature Precipitation Wind Pressure Humidity
    00:00 +18°C° 0 mm 3 mps 764 mmHg 89%
    01:00 +17°C° 0 mm 3 mps 764 mmHg 89%
    02:00 +17°C° 0 mm 3 mps 763 mmHg 89%
    03:00 +17°C° 0 mm 3 mps 763 mmHg 89%
    04:00 +17°C° 0 mm 3 mps 763 mmHg 88%
    05:00 +16°C° 0 mm 3 mps 763 mmHg 88%
    06:00 +17°C° 0 mm 3 mps 763 mmHg 82%
    07:00 +18°C° 0 mm 2 mps 764 mmHg 77%
    08:00 +20°C° 0 mm 2 mps 764 mmHg 72%
    09:00 +23°C° 0 mm 2 mps 764 mmHg 62%
    10:00 +25°C° 0 mm 2 mps 763 mmHg 52%
    11:00 +28°C° 0 mm 2 mps 763 mmHg 42%
    12:00 +28°C° 0 mm 3 mps 763 mmHg 43%
    13:00 +28°C° 0 mm 3 mps 762 mmHg 44%
    14:00 +28°C° 0 mm 4 mps 761 mmHg 44%
    15:00 +27°C° 0 mm 4 mps 761 mmHg 52%
    16:00 +25°C° 0 mm 4 mps 761 mmHg 60%
    17:00 +22°C° 0 mm 4 mps 761 mmHg 67%
    18:00 +21°C° 0 mm 4 mps 762 mmHg 74%
    19:00 +20°C° 0 mm 3 mps 762 mmHg 80%
    20:00 +18°C° 0 mm 3 mps 762 mmHg 86%
    21:00 +18°C° 0 mm 3 mps 762 mmHg 88%
    22:00 +18°C° 0 mm 4 mps 762 mmHg 90%
    23:00 +18°C° 0 mm 4 mps 762 mmHg 91%
    Show more